Rugby, ND

2:39 PM CDT on March 27, 2017 (GMT -0500)
Rugby Municipal

Weather History for KRUG - December, 2013

Change the Weather History Date:

Sunday, December 29, 2013

  Actual Average Record
Temperature  
Mean Temperature -12 °F -  
Max Temperature -2 °F 14 °F 41 °F (1979)
Min Temperature -22 °F -4 °F -36 °F (1990)
Degree Days  
Heating Degree Days 77    
Moisture  
Dew Point -17 °F    
Average Humidity 75    
Maximum Humidity 84    
Minimum Humidity 65    
Precipitation  
Precipitation 0.00 in - - ()
Sea Level Pressure  
Sea Level Pressure 30.26 in    
Wind  
Wind Speed 9 mph (SW)    
Max Wind Speed 14 mph    
Max Gust Speed -    
Visibility 10 miles    
Events      
Averages and records for this station are not official NWS values.
T = Trace of Precipitation, MM = Missing Value Source: NWS Daily Summary

Daily Weather History Graph

Daily Weather History Graph

Search for Another Location

Airport or City:

Trip Planner

Search our weather history database for the weather conditions in past years. The results will help you decide how hot, cold, wet, or windy it might be!

Date:

Astronomy

Dec. 29, 2013 Rise Set
Actual Time 8:31 AM CST 4:53 PM CST
Civil Twilight 7:54 AM CST 5:30 PM CST
Nautical Twilight 7:14 AM CST 6:09 PM CST
Astronomical Twilight 6:36 AM CST 6:48 PM CST
Moon 5:10 AM CST (12/29) 2:38 PM CST (12/29)
Length of Visible Light 9h 35m
Length of Day
8h 21m
Waning Crescent, 11% of the Moon is Illuminated
Dec 29
Waning Crescent
Jan 1
New
Jan 7
First Quarter
Jan 15
Full
Jan 23
Last Quarter

Hourly Weather History & Observations

Time (CST) Temp. Windchill Dew Point Humidity Pressure Visibility Wind Dir Wind Speed Gust Speed Precip Events Conditions
12:15 AM -9.4 °F -30.6 °F -18.4 °F 65% 30.45 in 10.0 mi NW 13.8 mph - N/A   Overcast
12:35 AM -9.4 °F -30.6 °F -18.4 °F 65% 30.45 in 10.0 mi NW 13.8 mph - N/A   Mostly Cloudy
12:55 AM -9.4 °F -29.8 °F -18.4 °F 65% 30.45 in 10.0 mi NW 12.7 mph - N/A   Mostly Cloudy
1:15 AM -11.2 °F -30.1 °F -18.4 °F 70% 30.45 in 10.0 mi NW 10.4 mph - N/A   Scattered Clouds
1:35 AM -11.2 °F -30.1 °F -18.4 °F 70% 30.44 in 10.0 mi NW 10.4 mph - N/A   Scattered Clouds
1:55 AM -11.2 °F -30.1 °F -18.4 °F 70% 30.45 in 10.0 mi NW 10.4 mph - N/A   Scattered Clouds
2:15 AM -11.2 °F -30.1 °F -18.4 °F 70% 30.45 in 10.0 mi WNW 10.4 mph - N/A   Mostly Cloudy
2:35 AM - - - N/A% 30.45 in 10.0 mi WNW 8.1 mph - N/A   Scattered Clouds
2:55 AM -13.0 °F -28.6 °F -20.2 °F 70% 30.45 in 10.0 mi WNW 6.9 mph - N/A   Clear
3:15 AM -13.0 °F -31.3 °F -20.2 °F 70% 30.44 in 10.0 mi WNW 9.2 mph - N/A   Clear
3:35 AM -13.0 °F -30.0 °F -18.4 °F 77% 30.45 in 10.0 mi NW 8.1 mph - N/A   Clear
3:55 AM -13.0 °F -31.3 °F -18.4 °F 77% 30.44 in 10.0 mi NW 9.2 mph - N/A   Clear
4:15 AM -13.0 °F -32.4 °F -20.2 °F 70% 30.43 in 10.0 mi NW 10.4 mph - N/A   Clear
4:35 AM -14.8 °F -34.6 °F -22.0 °F 70% 30.42 in 10.0 mi NW 10.4 mph - N/A   Partly Cloudy
4:55 AM -16.6 °F -34.4 °F -22.0 °F 76% 30.41 in 10.0 mi WNW 8.1 mph - N/A   Clear
5:15 AM -18.4 °F -35.1 °F -23.8 °F 76% 30.40 in 10.0 mi West 6.9 mph - N/A   Clear
5:35 AM -18.4 °F -37.9 °F -25.6 °F 70% 30.41 in 10.0 mi WNW 9.2 mph - N/A   Clear
5:55 AM -20.2 °F -38.8 °F -25.6 °F 76% 30.40 in 10.0 mi WNW 8.1 mph - N/A   Clear
6:15 AM -20.2 °F -38.8 °F -25.6 °F 76% 30.40 in 10.0 mi WNW 8.1 mph - N/A   Clear
6:35 AM -20.2 °F -37.3 °F -27.4 °F 69% 30.40 in 10.0 mi West 6.9 mph - N/A   Clear
6:55 AM -20.2 °F -38.8 °F -27.4 °F 69% 30.40 in 10.0 mi West 8.1 mph - N/A   Clear
7:15 AM -20.2 °F -40.1 °F -25.6 °F 76% 30.39 in 10.0 mi West 9.2 mph - N/A   Clear
7:35 AM -20.2 °F -35.5 °F -25.6 °F 76% 30.38 in 10.0 mi WSW 5.8 mph - N/A   Clear
7:55 AM -20.2 °F -38.8 °F -25.6 °F 76% 30.38 in 10.0 mi West 8.1 mph - N/A   Clear
8:15 AM -20.2 °F -38.8 °F -27.4 °F 69% 30.37 in 10.0 mi WSW 8.1 mph - N/A   Clear
8:35 AM -22.0 °F -42.3 °F -27.4 °F 76% 30.36 in 10.0 mi WSW 9.2 mph - N/A   Clear
8:55 AM -22.0 °F -39.4 °F -27.4 °F 76% 30.35 in 10.0 mi WSW 6.9 mph - N/A   Clear
9:15 AM -20.2 °F -38.8 °F -25.6 °F 76% 30.34 in 10.0 mi WSW 8.1 mph - N/A   Clear
9:35 AM -18.4 °F -36.6 °F -23.8 °F 76% 30.34 in 10.0 mi WSW 8.1 mph - N/A   Clear
9:55 AM -18.4 °F -35.1 °F -23.8 °F 76% 30.35 in 10.0 mi WSW 6.9 mph - N/A   Clear
10:15 AM -18.4 °F -33.4 °F -22.0 °F 84% 30.35 in 8.0 mi WSW 5.8 mph - N/A   Clear
10:35 AM -16.6 °F -29.3 °F -20.2 °F 84% 30.35 in 10.0 mi WSW 4.6 mph - N/A   Clear
10:55 AM -14.8 °F -29.1 °F -20.2 °F 77% 30.35 in 10.0 mi West 5.8 mph - N/A   Clear
11:15 AM -13.0 °F -28.6 °F -18.4 °F 77% 30.33 in 10.0 mi West 6.9 mph - N/A   Clear
11:35 AM - - - N/A% 30.32 in 10.0 mi West 6.9 mph - N/A   Clear
11:55 AM -11.2 °F -26.4 °F -16.6 °F 77% 30.31 in 10.0 mi West 6.9 mph - N/A   Clear
12:15 PM -9.4 °F -24.3 °F -14.8 °F 77% 30.29 in 10.0 mi WSW 6.9 mph - N/A   Clear
12:35 PM -9.4 °F -24.3 °F -14.8 °F 77% 30.27 in 10.0 mi SW 6.9 mph - N/A   Clear
12:55 PM -7.6 °F -22.1 °F -13.0 °F 77% 30.25 in 10.0 mi SW 6.9 mph - N/A   Clear
1:15 PM -7.6 °F -24.6 °F -13.0 °F 77% 30.24 in 10.0 mi SW 9.2 mph - N/A   Clear
1:35 PM -7.6 °F -20.6 °F -13.0 °F 77% 30.22 in 10.0 mi SW 5.8 mph - N/A   Clear
1:55 PM -5.8 °F -19.9 °F -13.0 °F 71% 30.21 in 10.0 mi WSW 6.9 mph - N/A   Clear
2:15 PM -5.8 °F -19.9 °F -13.0 °F 71% 30.20 in 10.0 mi SW 6.9 mph - N/A   Clear
2:35 PM -5.8 °F -19.9 °F -13.0 °F 71% 30.19 in 10.0 mi SSW 6.9 mph - N/A   Clear
2:55 PM -5.8 °F -18.4 °F -13.0 °F 71% 30.18 in 10.0 mi SSW 5.8 mph - N/A   Clear
3:15 PM -5.8 °F -19.9 °F -13.0 °F 71% 30.17 in 10.0 mi SSW 6.9 mph - N/A   Clear
3:35 PM -5.8 °F -14.5 °F -13.0 °F 71% 30.17 in 10.0 mi South 3.5 mph - N/A   Clear
3:55 PM -7.6 °F -20.6 °F -13.0 °F 77% 30.16 in 10.0 mi SSW 5.8 mph - N/A   Clear
4:15 PM -7.6 °F -16.5 °F -13.0 °F 77% 30.16 in 10.0 mi South 3.5 mph - N/A   Clear
4:35 PM -7.6 °F -20.6 °F -13.0 °F 77% 30.14 in 10.0 mi SSE 5.8 mph - N/A   Clear
4:55 PM -7.6 °F -18.8 °F -13.0 °F 77% 30.13 in 10.0 mi SSE 4.6 mph - N/A   Clear
5:15 PM -7.6 °F -18.8 °F -13.0 °F 77% 30.12 in 10.0 mi SSE 4.6 mph - N/A   Clear
5:35 PM -7.6 °F -22.1 °F -13.0 °F 77% 30.12 in 10.0 mi SSE 6.9 mph - N/A   Scattered Clouds
5:55 PM -7.6 °F -20.6 °F -13.0 °F 77% 30.11 in 10.0 mi SSE 5.8 mph - N/A   Overcast
6:15 PM -7.6 °F -18.8 °F -13.0 °F 77% 30.09 in 10.0 mi SSE 4.6 mph - N/A   Mostly Cloudy
6:35 PM -7.6 °F -18.8 °F -13.0 °F 77% 30.09 in 10.0 mi SE 4.6 mph - N/A   Mostly Cloudy
6:55 PM -7.6 °F -20.6 °F -11.2 °F 84% 30.08 in 10.0 mi SSE 5.8 mph - N/A   Overcast
7:15 PM -7.6 °F -20.6 °F -13.0 °F 77% 30.07 in 10.0 mi SE 5.8 mph - N/A   Overcast
7:35 PM -7.6 °F -20.6 °F -11.2 °F 84% 30.06 in 10.0 mi SE 5.8 mph - N/A   Overcast
7:55 PM -9.4 °F -20.9 °F -13.0 °F 84% 30.06 in 10.0 mi East 4.6 mph - N/A   Overcast
8:15 PM -7.6 °F -20.6 °F -11.2 °F 84% 30.05 in 10.0 mi SE 5.8 mph - N/A   Overcast
8:35 PM -5.8 °F -16.7 °F -11.2 °F 77% 30.05 in 10.0 mi SE 4.6 mph - N/A   Overcast
8:55 PM -4.0 °F -14.6 °F -9.4 °F 78% 30.04 in 10.0 mi ESE 4.6 mph - N/A   Mostly Cloudy
9:15 PM -4.0 °F -16.3 °F -9.4 °F 78% 30.04 in 10.0 mi ESE 5.8 mph - N/A   Overcast
9:35 PM -4.0 °F -16.3 °F -9.4 °F 78% 30.03 in 10.0 mi SE 5.8 mph - N/A   Overcast
9:55 PM -4.0 °F -16.3 °F -9.4 °F 78% 30.03 in 10.0 mi East 5.8 mph - N/A   Overcast
10:15 PM -4.0 °F -17.8 °F -9.4 °F 78% 30.02 in 10.0 mi ESE 6.9 mph - N/A   Mostly Cloudy
10:35 PM -5.8 °F -19.9 °F -11.2 °F 77% 30.01 in 10.0 mi ESE 6.9 mph - N/A   Mostly Cloudy
10:55 PM -4.0 °F -19.0 °F -9.4 °F 78% 30.01 in 10.0 mi ESE 8.1 mph - N/A   Overcast
11:15 PM -4.0 °F -19.0 °F -9.4 °F 78% 30.01 in 10.0 mi SE 8.1 mph - N/A   Overcast
11:35 PM -2.2 °F -18.0 °F -7.6 °F 78% 30.00 in 10.0 mi ESE 9.2 mph - N/A   Mostly Cloudy
11:55 PM -2.2 °F -18.0 °F -7.6 °F 78% 30.00 in 10.0 mi ESE 9.2 mph - N/A   Scattered Clouds